Time,TemperatureF,DewpointF,PressureIn,WindDirection,WindDirectionDegrees,WindSpeedMPH,WindSpeedGustMPH,Humidity,HourlyPrecipIn,Conditions,Clouds,dailyrainin,SoftwareType,DateUTC
2013-08-06 00:00:00,85.0,80.0,30.02,NW,310,10.0,13.0,84,-99.99,,,-99.99,,2013-08-06 04:00:00,
2013-08-06 00:32:00,85.0,80.0,30.02,NW,310,10.0,13.0,84,-99.99,,,-99.99,,2013-08-06 04:32:00,
2013-08-06 00:44:00,85.0,80.0,30.02,NW,310,10.0,13.0,84,-99.99,,,-99.99,,2013-08-06 04:44:00,
2013-08-06 00:53:00,85.0,80.0,30.02,NW,310,10.0,13.0,84,-99.99,,,-99.99,,2013-08-06 04:53:00,
2013-08-06 01:00:00,85.0,80.0,30.01,NW,310,10.0,12.0,85,-99.99,,,-99.99,,2013-08-06 05:00:00,
2013-08-06 01:32:00,85.0,80.0,30.01,NW,310,10.0,12.0,85,-99.99,,,-99.99,,2013-08-06 05:32:00,
2013-08-06 01:43:00,85.0,80.0,30.01,NW,310,10.0,12.0,85,-99.99,,,-99.99,,2013-08-06 05:43:00,
2013-08-06 01:53:00,85.0,80.0,30.01,NW,310,10.0,12.0,85,-99.99,,,-99.99,,2013-08-06 05:53:00,
2013-08-06 02:00:00,82.0,81.0,29.99,North,360,16.0,17.0,97,-99.99,,,-99.99,,2013-08-06 06:00:00,
2013-08-06 02:22:00,82.0,81.0,29.99,North,360,16.0,17.0,97,-99.99,,,-99.99,,2013-08-06 06:22:00,
2013-08-06 02:32:00,82.0,81.0,29.99,North,360,16.0,17.0,97,-99.99,,,-99.99,,2013-08-06 06:32:00,
2013-08-06 02:42:00,82.0,81.0,29.99,North,360,16.0,17.0,97,-99.99,,,-99.99,,2013-08-06 06:42:00,
2013-08-06 02:52:00,82.0,81.0,29.99,North,360,16.0,17.0,97,-99.99,,,-99.99,,2013-08-06 06:52:00,
2013-08-06 03:00:00,80.0,78.0,29.96,North,0,0.0,1.0,93,-99.99,,,-99.99,,2013-08-06 07:00:00,
2013-08-06 03:32:00,80.0,78.0,29.96,North,0,0.0,1.0,93,-99.99,,,-99.99,,2013-08-06 07:32:00,
2013-08-06 03:43:00,80.0,78.0,29.96,North,0,0.0,1.0,93,-99.99,,,-99.99,,2013-08-06 07:43:00,
2013-08-06 03:53:00,80.0,78.0,29.96,North,0,0.0,1.0,93,-99.99,,,-99.99,,2013-08-06 07:53:00,
2013-08-06 04:00:00,83.0,79.0,29.95,SSW,200,7.0,8.0,89,-99.99,,,-99.99,,2013-08-06 08:00:00,
2013-08-06 04:21:00,83.0,79.0,29.95,SSW,200,7.0,8.0,89,-99.99,,,-99.99,,2013-08-06 08:21:00,
2013-08-06 04:32:00,83.0,79.0,29.95,SSW,200,7.0,8.0,89,-99.99,,,-99.99,,2013-08-06 08:32:00,
2013-08-06 04:43:00,83.0,79.0,29.95,SSW,200,7.0,8.0,89,-99.99,,,-99.99,,2013-08-06 08:43:00,
2013-08-06 04:52:00,83.0,79.0,29.95,SSW,200,7.0,8.0,89,-99.99,,,-99.99,,2013-08-06 08:52:00,
2013-08-06 05:00:00,77.0,76.0,29.94,South,170,12.0,20.0,95,-99.99,,,-99.99,,2013-08-06 09:00:00,
2013-08-06 05:32:00,77.0,76.0,29.94,South,170,12.0,20.0,95,-99.99,,,-99.99,,2013-08-06 09:32:00,
2013-08-06 05:43:00,77.0,76.0,29.94,South,170,12.0,20.0,95,-99.99,,,-99.99,,2013-08-06 09:43:00,
2013-08-06 05:52:00,77.0,76.0,29.94,South,170,12.0,20.0,95,-99.99,,,-99.99,,2013-08-06 09:52:00,
2013-08-06 06:00:00,76.0,73.0,29.94,South,190,14.0,15.0,90,-99.99,,,-99.99,,2013-08-06 10:00:00,
2013-08-06 06:32:00,76.0,73.0,29.94,South,190,14.0,15.0,90,-99.99,,,-99.99,,2013-08-06 10:32:00,
2013-08-06 06:42:00,76.0,73.0,29.94,South,190,14.0,15.0,90,-99.99,,,-99.99,,2013-08-06 10:42:00,
2013-08-06 06:52:00,76.0,73.0,29.94,South,190,14.0,15.0,90,-99.99,,,-99.99,,2013-08-06 10:52:00,
2013-08-06 07:00:00,80.0,79.0,29.94,SSW,200,13.0,14.0,96,-99.99,,,-99.99,,2013-08-06 11:00:00,
2013-08-06 07:32:00,80.0,79.0,29.94,SSW,200,13.0,14.0,96,-99.99,,,-99.99,,2013-08-06 11:32:00,
2013-08-06 08:00:00,81.0,80.0,29.97,SSW,210,9.0,10.0,96,-99.99,,,-99.99,,2013-08-06 12:00:00,
2013-08-06 08:43:00,81.0,80.0,29.97,SSW,210,9.0,10.0,96,-99.99,,,-99.99,,2013-08-06 12:43:00,
2013-08-06 08:52:00,81.0,80.0,29.97,SSW,210,9.0,10.0,96,-99.99,,,-99.99,,2013-08-06 12:52:00,
2013-08-06 09:00:00,82.0,79.0,29.98,SW,230,8.0,9.0,92,-99.99,,,-99.99,,2013-08-06 13:00:00,
2013-08-06 09:32:00,82.0,79.0,29.98,SW,230,8.0,9.0,92,-99.99,,,-99.99,,2013-08-06 13:32:00,
2013-08-06 09:42:00,82.0,79.0,29.98,SW,230,8.0,9.0,92,-99.99,,,-99.99,,2013-08-06 13:42:00,
2013-08-06 09:52:00,82.0,79.0,29.98,SW,230,8.0,9.0,92,-99.99,,,-99.99,,2013-08-06 13:52:00,
2013-08-06 10:00:00,83.0,79.0,30.00,West,260,9.0,10.0,88,-99.99,,,-99.99,,2013-08-06 14:00:00,
2013-08-06 10:32:00,83.0,79.0,30.00,West,260,9.0,10.0,88,-99.99,,,-99.99,,2013-08-06 14:32:00,
2013-08-06 10:42:00,83.0,79.0,30.00,West,260,9.0,10.0,88,-99.99,,,-99.99,,2013-08-06 14:42:00,
2013-08-06 10:53:00,83.0,79.0,30.00,West,260,9.0,10.0,88,-99.99,,,-99.99,,2013-08-06 14:53:00,
2013-08-06 11:00:00,82.0,81.0,30.00,WSW,250,9.0,12.0,94,-99.99,,,-99.99,,2013-08-06 15:00:00,
2013-08-06 11:33:00,82.0,81.0,30.00,WSW,250,9.0,12.0,94,-99.99,,,-99.99,,2013-08-06 15:33:00,
2013-08-06 11:43:00,82.0,81.0,30.00,WSW,250,9.0,12.0,94,-99.99,,,-99.99,,2013-08-06 15:43:00,
2013-08-06 11:52:00,82.0,81.0,30.00,WSW,250,9.0,12.0,94,-99.99,,,-99.99,,2013-08-06 15:52:00,
2013-08-06 12:00:00,82.0,81.0,30.00,WSW,250,12.0,13.0,95,-99.99,,,-99.99,,2013-08-06 16:00:00,
2013-08-06 12:32:00,82.0,81.0,30.00,WSW,250,12.0,13.0,95,-99.99,,,-99.99,,2013-08-06 16:32:00,
2013-08-06 12:42:00,82.0,81.0,30.00,WSW,250,12.0,13.0,95,-99.99,,,-99.99,,2013-08-06 16:42:00,
2013-08-06 12:52:00,82.0,81.0,30.00,WSW,250,12.0,13.0,95,-99.99,,,-99.99,,2013-08-06 16:52:00,
2013-08-06 13:00:00,83.0,79.0,29.99,WSW,240,13.0,14.0,88,-99.99,,,-99.99,,2013-08-06 17:00:00,
2013-08-06 13:32:00,83.0,79.0,29.99,WSW,240,13.0,14.0,88,-99.99,,,-99.99,,2013-08-06 17:32:00,
2013-08-06 13:43:00,83.0,79.0,29.99,WSW,240,13.0,14.0,88,-99.99,,,-99.99,,2013-08-06 17:43:00,
2013-08-06 13:52:00,83.0,79.0,29.99,WSW,240,13.0,14.0,88,-99.99,,,-99.99,,2013-08-06 17:52:00,
2013-08-06 14:00:00,83.0,81.0,29.97,West,260,17.0,18.0,94,-99.99,,,-99.99,,2013-08-06 18:00:00,
2013-08-06 14:32:00,83.0,81.0,29.97,West,260,17.0,18.0,94,-99.99,,,-99.99,,2013-08-06 18:32:00,
2013-08-06 14:43:00,83.0,81.0,29.97,West,260,17.0,18.0,94,-99.99,,,-99.99,,2013-08-06 18:43:00,
2013-08-06 14:52:00,83.0,81.0,29.97,West,260,17.0,18.0,94,-99.99,,,-99.99,,2013-08-06 18:52:00,
2013-08-06 15:00:00,81.0,81.0,29.97,West,280,16.0,16.0,98,-99.99,,,-99.99,,2013-08-06 19:00:00,
2013-08-06 15:32:00,81.0,81.0,29.97,West,280,16.0,16.0,98,-99.99,,,-99.99,,2013-08-06 19:32:00,
2013-08-06 15:42:00,81.0,81.0,29.97,West,280,16.0,16.0,98,-99.99,,,-99.99,,2013-08-06 19:42:00,
2013-08-06 15:52:00,81.0,81.0,29.97,West,280,16.0,16.0,98,-99.99,,,-99.99,,2013-08-06 19:52:00,
2013-08-06 16:00:00,82.0,79.0,29.99,West,260,7.0,8.0,90,-99.99,,,-99.99,,2013-08-06 20:00:00,
2013-08-06 16:32:00,82.0,79.0,29.99,West,260,7.0,8.0,90,-99.99,,,-99.99,,2013-08-06 20:32:00,
2013-08-06 16:43:00,82.0,79.0,29.99,West,260,7.0,8.0,90,-99.99,,,-99.99,,2013-08-06 20:43:00,
2013-08-06 16:52:00,82.0,79.0,29.99,West,260,7.0,8.0,90,-99.99,,,-99.99,,2013-08-06 20:52:00,
2013-08-06 17:00:00,80.0,80.0,29.95,SSW,210,3.0,5.0,98,-99.99,,,-99.99,,2013-08-06 21:00:00,
2013-08-06 17:32:00,80.0,80.0,29.95,SSW,210,3.0,5.0,98,-99.99,,,-99.99,,2013-08-06 21:32:00,
2013-08-06 17:43:00,80.0,80.0,29.95,SSW,210,3.0,5.0,98,-99.99,,,-99.99,,2013-08-06 21:43:00,
2013-08-06 17:52:00,80.0,80.0,29.95,SSW,210,3.0,5.0,98,-99.99,,,-99.99,,2013-08-06 21:52:00,
2013-08-06 18:00:00,82.0,81.0,29.93,West,280,5.0,5.0,97,-99.99,,,-99.99,,2013-08-06 22:00:00,
2013-08-06 18:32:00,82.0,81.0,29.93,West,280,5.0,5.0,97,-99.99,,,-99.99,,2013-08-06 22:32:00,
2013-08-06 18:43:00,82.0,81.0,29.93,West,280,5.0,5.0,97,-99.99,,,-99.99,,2013-08-06 22:43:00,
2013-08-06 18:52:00,82.0,81.0,29.93,West,280,5.0,5.0,97,-99.99,,,-99.99,,2013-08-06 22:52:00,
2013-08-06 19:00:00,83.0,81.0,29.94,West,280,8.0,9.0,94,-99.99,,,-99.99,,2013-08-06 23:00:00,
2013-08-06 19:32:00,83.0,81.0,29.94,West,280,8.0,9.0,94,-99.99,,,-99.99,,2013-08-06 23:32:00,
2013-08-06 19:42:00,83.0,81.0,29.94,West,280,8.0,9.0,94,-99.99,,,-99.99,,2013-08-06 23:42:00,
2013-08-06 19:52:00,83.0,81.0,29.94,West,280,8.0,9.0,94,-99.99,,,-99.99,,2013-08-06 23:52:00,
2013-08-06 20:00:00,83.0,81.0,29.95,NW,310,7.0,7.0,93,-99.99,,,-99.99,,2013-08-07 00:00:00,
2013-08-06 20:21:00,83.0,81.0,29.95,NW,310,7.0,7.0,93,-99.99,,,-99.99,,2013-08-07 00:21:00,
2013-08-06 20:32:00,83.0,81.0,29.95,NW,310,7.0,7.0,93,-99.99,,,-99.99,,2013-08-07 00:32:00,
2013-08-06 20:43:00,83.0,81.0,29.95,NW,310,7.0,7.0,93,-99.99,,,-99.99,,2013-08-07 00:43:00,
2013-08-06 20:52:00,83.0,81.0,29.95,NW,310,7.0,7.0,93,-99.99,,,-99.99,,2013-08-07 00:52:00,
2013-08-06 21:00:00,84.0,80.0,29.97,NNW,340,6.0,7.0,86,-99.99,,,-99.99,,2013-08-07 01:00:00,
2013-08-06 21:32:00,84.0,80.0,29.97,NNW,340,6.0,7.0,86,-99.99,,,-99.99,,2013-08-07 01:32:00,
2013-08-06 21:43:00,84.0,80.0,29.97,NNW,340,6.0,7.0,86,-99.99,,,-99.99,,2013-08-07 01:43:00,
2013-08-06 21:52:00,84.0,80.0,29.97,NNW,340,6.0,7.0,86,-99.99,,,-99.99,,2013-08-07 01:52:00,
2013-08-06 22:00:00,84.0,78.0,29.97,NNW,330,5.0,5.0,80,-99.99,,,-99.99,,2013-08-07 02:00:00,
2013-08-06 22:33:00,84.0,78.0,29.97,NNW,330,5.0,5.0,80,-99.99,,,-99.99,,2013-08-07 02:33:00,
2013-08-06 22:43:00,84.0,78.0,29.97,NNW,330,5.0,5.0,80,-99.99,,,-99.99,,2013-08-07 02:43:00,
2013-08-06 22:53:00,84.0,78.0,29.97,NNW,330,5.0,5.0,80,-99.99,,,-99.99,,2013-08-07 02:53:00,
2013-08-06 23:00:00,84.0,79.0,29.98,North,360,5.0,6.0,85,-99.99,,,-99.99,,2013-08-07 03:00:00,
2013-08-06 23:32:00,84.0,79.0,29.98,North,360,5.0,6.0,85,-99.99,,,-99.99,,2013-08-07 03:32:00,
2013-08-06 23:43:00,84.0,79.0,29.98,North,360,5.0,6.0,85,-99.99,,,-99.99,,2013-08-07 03:43:00,
2013-08-06 23:52:00,84.0,79.0,29.98,North,360,5.0,6.0,85,-99.99,,,-99.99,,2013-08-07 03:52:00,